K0NV Weather Reports


time (UTC)temp
F
wind
direction
speed
knots
gust
knots
rain 1hr
in
rain 24hr
in
rain mn
in
humidity
%
barometer
mb
20260507103743 44 268 0.0 0.0 0.00 0.00 0.00 84 1019.0
20260507103235 43 268 0.0 0.0 0.00 0.00 0.00 84 1019.0
20260507102731 43 271 0.0 0.0 0.00 0.00 0.00 85 1018.9
20260507102228 43 276 0.0 0.0 0.00 0.00 0.00 86 1019.0
20260507101724 43 279 0.0 0.0 0.00 0.00 0.00 87 1019.1
20260507101219 43 289 0.0 0.0 0.00 0.00 0.00 87 1019.1
20260507100717 43 280 0.0 0.0 0.00 0.00 0.00 87 1019.0
20260507100215 43 268 0.0 0.0 0.00 0.00 0.00 86 1018.8
20260507095713 43 267 0.0 0.0 0.00 0.00 0.00 86 1018.6
20260507095209 42 267 0.0 0.0 0.00 0.00 0.00 86 1019.0
20260507094706 42 283 0.0 0.0 0.00 0.00 0.00 86 1019.1
20260507094203 42 283 0.0 0.0 0.00 0.00 0.00 86 1019.5
20260507093700 42 283 0.0 0.0 0.00 0.00 0.00 85 1019.5
20260507093159 42 286 0.0 0.0 0.00 0.00 0.00 85 1019.2
20260507092655 41 286 0.0 0.0 0.00 0.00 0.00 84 1019.1
20260507092151 41 286 0.0 0.0 0.00 0.00 0.00 83 1019.1
20260507091648 41 286 0.0 0.0 0.00 0.00 0.00 81 1019.2
20260507091145 41 286 0.0 0.0 0.00 0.00 0.00 80 1019.2
20260507090640 42 286 0.0 0.0 0.00 0.00 0.00 80 1019.3
20260507090137 42 289 0.0 0.0 0.00 0.00 0.00 80 1019.2
20260507085634 41 289 0.0 0.0 0.00 0.00 0.00 80 1019.1
20260507085131 41 290 0.0 0.0 0.00 0.00 0.00 81 1019.1
20260507084628 42 290 0.0 0.0 0.00 0.00 0.00 81 1018.8
20260507084125 42 291 0.0 0.0 0.00 0.00 0.00 81 1018.9
20260507083621 42 296 0.0 0.0 0.00 0.00 0.00 81 1018.9
20260507083118 42 300 0.0 0.0 0.00 0.00 0.00 81 1018.9
20260507082614 42 303 0.0 0.0 0.00 0.00 0.00 82 1019.0
20260507082111 42 79 0.0 0.0 0.00 0.00 0.00 80 1018.9
20260507081607 42 79 0.0 0.0 0.00 0.00 0.00 79 1019.0
20260507081104 42 78 0.0 0.0 0.00 0.00 0.00 80 1018.8
20260507080600 43 81 0.0 0.0 0.00 0.00 0.00 80 1018.9
20260507080056 43 81 0.0 0.0 0.00 0.00 0.00 79 1019.1
20260507075551 42 86 0.0 0.0 0.00 0.00 0.00 81 1018.7
20260507075048 42 90 0.0 0.0 0.00 0.00 0.00 84 1018.9
20260507074545 42 253 0.0 0.0 0.00 0.00 0.00 84 1018.8
20260507074043 42 264 0.0 0.0 0.00 0.00 0.00 83 1019.2
20260507073539 42 268 0.0 0.0 0.00 0.00 0.00 84 1019.0
20260507073036 42 265 0.0 0.0 0.00 0.00 0.00 84 1019.3
20260507072533 42 266 0.0 0.0 0.00 0.00 0.00 84 1019.3
20260507072030 42 265 0.0 0.0 0.00 0.00 0.00 84 1019.5
20260507071528 42 265 0.0 0.0 0.00 0.00 0.00 85 1019.3
20260507071024 43 268 0.0 0.0 0.00 0.00 0.00 85 1019.3
20260507070521 43 265 0.0 0.0 0.00 0.00 0.00 84 1019.3
20260507070019 43 268 0.0 0.0 0.00 0.00 0.00 83 1019.5
20260507065515 43 272 0.0 0.0 0.00 0.00 0.00 81 1019.6
20260507065012 44 271 0.0 0.0 0.00 0.00 0.00 80 1019.6
20260507064510 44 264 0.0 0.0 0.00 0.00 0.00 79 1019.6
20260507064008 44 263 0.0 0.0 0.00 0.00 0.00 78 1019.5
20260507063505 44 264 0.0 0.0 0.00 0.00 0.00 76 1019.6
20260507063002 44 265 0.0 0.0 0.00 0.00 0.00 77 1019.5
20260507062459 44 268 0.0 0.0 0.00 0.00 0.00 77 1019.5
20260507061956 44 275 0.0 0.0 0.00 0.00 0.00 78 1019.3
20260507061454 43 314 0.0 0.0 0.00 0.00 0.00 79 1019.2
20260507060952 44 294 0.0 0.0 0.00 0.00 0.00 79 1019.7
20260507060449 44 297 0.0 0.0 0.00 0.00 0.00 79 1019.6
20260507055945 44 275 0.0 0.0 0.00 0.00 0.00 79 1019.7
20260507055440 45 275 0.0 0.0 0.00 0.00 0.00 78 1019.7
20260507054938 45 273 0.0 0.0 0.00 0.00 0.00 78 1019.8
20260507054433 45 281 0.0 0.0 0.00 0.00 0.00 78 1019.5
20260507053931 45 280 0.0 0.0 0.00 0.00 0.00 78 1019.8
20260507053428 45 279 0.0 0.0 0.00 0.00 0.00 77 1019.8
20260507052927 45 282 0.0 0.0 0.00 0.00 0.00 77 1019.8
20260507052424 45 278 0.0 0.0 0.00 0.00 0.00 77 1019.7
20260507051921 45 275 0.0 0.0 0.00 0.00 0.00 76 1019.7
20260507051419 46 271 0.0 0.0 0.00 0.00 0.00 76 1019.5
20260507050915 46 278 0.0 0.0 0.00 0.00 0.00 76 1019.5
20260507050412 46 276 0.0 0.0 0.00 0.00 0.00 76 1019.2
20260507045908 46 273 0.0 0.0 0.00 0.00 0.00 76 1019.7
20260507045405 46 271 0.0 0.0 0.00 0.00 0.00 75 1019.3
20260507044857 46 267 0.0 0.0 0.00 0.00 0.00 75 1019.5
20260507044353 46 274 0.0 0.0 0.00 0.00 0.00 74 1019.2
20260507043849 47 276 0.0 0.0 0.00 0.00 0.00 74 1019.5
20260507043345 47 280 0.0 0.0 0.00 0.00 0.00 73 1019.3
20260507042842 47 272 0.0 0.0 0.00 0.00 0.00 73 1019.2
20260507042337 47 280 0.0 0.0 0.00 0.00 0.00 72 1019.3
20260507041829 47 272 0.0 0.0 0.00 0.00 0.00 72 1019.0
20260507041326 48 278 0.0 0.0 0.00 0.00 0.00 71 1019.2
20260507040823 48 272 0.0 0.0 0.00 0.00 0.00 71 1019.3
20260507040319 48 271 0.0 0.0 0.00 0.00 0.00 70 1019.2
20260507035815 48 260 0.0 0.0 0.00 0.00 0.00 70 1019.3
20260507035310 48 269 0.0 0.0 0.00 0.00 0.00 70 1019.3
20260507034809 48 283 0.0 0.0 0.00 0.00 0.00 69 1018.9
20260507034305 48 285 0.0 0.0 0.00 0.00 0.00 70 1019.1
20260507033804 49 304 0.0 0.0 0.00 0.00 0.00 70 1019.1
20260507033301 49 356 0.0 0.0 0.00 0.00 0.00 70 1019.2
20260507032757 49 317 0.0 0.0 0.00 0.00 0.00 71 1018.9
20260507032253 49 282 0.0 0.0 0.00 0.00 0.00 70 1019.0
20260507031750 49 270 0.0 0.0 0.00 0.00 0.00 69 1019.0
20260507031247 50 269 0.0 0.0 0.00 0.00 0.00 68 1018.9
20260507030744 50 267 0.0 0.0 0.00 0.00 0.00 67 1018.9
20260507030241 50 284 0.0 0.0 0.00 0.00 0.00 64 1018.9
20260507025738 51 272 0.0 0.0 0.00 0.00 0.00 64 1018.8
20260507025236 51 282 0.0 0.0 0.00 0.00 0.00 63 1018.6
20260507024734 51 251 0.0 0.0 0.00 0.00 0.00 63 1018.8
20260507024231 51 276 0.0 0.0 0.00 0.00 0.00 63 1018.6
20260507023726 52 284 0.0 0.0 0.00 0.00 0.00 62 1018.6
20260507023223 52 285 0.0 0.0 0.00 0.00 0.00 61 1018.8
20260507022721 52 275 0.0 0.0 0.00 0.00 0.00 62 1018.9
20260507022216 52 245 0.0 0.0 0.00 0.00 0.00 62 1018.8
20260507021713 52 311 0.0 0.0 0.00 0.00 0.00 62 1018.9
20260507021208 52 268 0.0 0.0 0.00 0.00 0.00 62 1018.5
20260507020707 53 347 0.0 0.0 0.00 0.00 0.00 61 1018.4
20260507020203 53 305 0.0 0.0 0.00 0.00 0.00 61 1018.4
20260507015701 53 321 0.0 0.0 0.00 0.00 0.00 61 1018.4
20260507015158 53 326 0.0 0.0 0.00 0.00 0.00 61 1018.3
20260507014654 53 325 0.0 0.0 0.00 0.00 0.00 61 1018.3
20260507014150 54 16 0.0 0.0 0.00 0.00 0.00 59 1018.4
20260507013647 54 302 0.0 0.0 0.00 0.00 0.00 59 1018.3
20260507013144 54 293 0.0 0.0 0.00 0.00 0.00 59 1018.4
20260507012642 55 286 0.0 0.9 0.00 0.00 0.00 58 1018.0
20260507012137 55 303 0.0 0.0 0.00 0.00 0.00 57 1018.0
20260507011636 55 252 0.0 0.0 0.00 0.00 0.00 57 1018.3
20260507011131 55 205 0.0 0.0 0.00 0.00 0.00 56 1018.3
20260507010626 55 254 0.0 0.0 0.00 0.00 0.00 55 1017.9
20260507010122 55 259 0.0 0.0 0.00 0.00 0.00 56 1018.0
20260507005620 56 260 0.0 0.9 0.00 0.00 0.00 55 1018.2
20260507005116 56 346 0.0 0.0 0.00 0.00 0.00 54 1018.0
20260507004613 56 40 0.0 0.0 0.00 0.00 0.00 55 1018.0
20260507004111 57 40 0.0 0.9 0.00 0.00 0.00 54 1018.1
20260507003607 57 292 0.0 0.0 0.00 0.00 0.00 53 1017.6
20260507003102 57 344 0.0 0.0 0.00 0.00 0.00 52 1017.7
20260507002558 57 196 0.0 0.0 0.00 0.00 0.00 52 1017.6
20260507002054 58 343 0.9 1.7 0.00 0.00 0.00 52 1017.8
20260507001551 58 22 0.0 0.9 0.00 0.00 0.00 51 1017.4
20260507001049 58 276 1.7 2.6 0.00 0.00 0.00 51 1017.7
20260507000544 59 263 0.0 0.0 0.00 0.00 0.00 51 1017.5
20260507000040 59 2 2.6 4.3 0.00 0.00 0.00 49 1017.3
20260506235538 60 264 0.0 0.9 0.00 0.00 0.00 50 1017.3
20260506235033 61 255 0.0 0.0 0.00 0.00 0.00 48 1017.3
20260506234531 60 283 0.9 0.9 0.00 0.00 0.00 47 1017.2
20260506234028 60 300 2.6 2.6 0.00 0.00 0.00 46 1016.6
20260506233524 61 243 0.9 2.6 0.00 0.00 0.00 45 1016.6
20260506233016 60 103 0.9 1.7 0.00 0.00 0.00 46 1016.6
20260506232512 60 32 5.2 6.1 0.00 0.00 0.00 46 1016.9
20260506232007 61 216 0.9 1.7 0.00 0.00 0.00 47 1016.6
20260506231505 61 260 1.7 2.6 0.00 0.00 0.00 45 1016.6
20260506231003 60 33 2.6 2.6 0.00 0.00 0.00 46 1016.6
20260506230459 60 282 2.6 2.6 0.00 0.00 0.00 45 1016.7
20260506225956 59 33 0.9 4.3 0.00 0.00 0.00 47 1016.9
20260506225453 60 252 0.9 1.7 0.00 0.00 0.00 46 1017.0
20260506224949 60 65 0.0 0.9 0.00 0.00 0.00 45 1016.6
20260506224446 60 266 0.9 1.7 0.00 0.00 0.00 45 1016.5
20260506223943 60 276 0.0 0.0 0.00 0.00 0.00 46 1016.6
20260506223439 62 236 0.0 0.0 0.00 0.00 0.00 47 1016.7
20260506222936 61 246 0.0 0.9 0.00 0.00 0.00 49 1016.6
20260506222433 60 56 2.6 4.3 0.00 0.00 0.00 50 1016.9
20260506221929 61 28 1.7 2.6 0.00 0.00 0.00 49 1016.7
20260506221426 63 243 0.0 0.0 0.00 0.00 0.00 47 1016.6
20260506220924 62 242 0.9 0.9 0.00 0.00 0.00 48 1016.4
20260506220419 62 235 0.9 0.9 0.00 0.00 0.00 48 1016.5
20260506215916 62 330 0.9 2.6 0.00 0.00 0.00 47 1016.5
20260506215412 61 262 0.0 0.0 0.00 0.00 0.00 47 1016.7
20260506214908 60 15 4.3 5.2 0.00 0.00 0.00 47 1016.6
20260506214406 61 62 5.2 7.0 0.00 0.00 0.00 46 1016.9
20260506213903 62 243 1.7 2.6 0.00 0.00 0.00 49 1016.7
20260506213401 61 31 1.7 2.6 0.00 0.00 0.00 48 1016.6
20260506212858 60 39 5.2 7.0 0.00 0.00 0.00 50 1017.0
20260506212353 61 243 0.9 1.7 0.00 0.00 0.00 49 1017.0
20260506211848 59 12 0.9 1.7 0.00 0.00 0.00 54 1017.2
20260506211345 61 19 2.6 5.2 0.00 0.00 0.00 50 1017.0
20260506210842 62 31 2.6 2.6 0.00 0.00 0.00 49 1017.1
20260506210339 60 22 3.5 4.3 0.00 0.00 0.00 50 1017.3
20260506205836 61 15 5.2 6.1 0.00 0.00 0.00 51 1017.5
20260506205332 60 250 0.9 1.7 0.00 0.00 0.00 49 1017.4
20260506204829 59 139 0.0 0.0 0.00 0.00 0.00 54 1017.1
20260506204326 59 14 4.3 6.1 0.00 0.00 0.00 53 1017.3
20260506203824 59 51 5.2 6.1 0.00 0.00 0.00 53 1017.4
20260506203321 62 9 3.5 5.2 0.00 0.00 0.00 53 1017.3
20260506202818 61 276 0.0 0.9 0.00 0.00 0.00 51 1017.5
20260506202315 59 247 0.0 0.9 0.00 0.00 0.00 52 1017.4
20260506201811 60 276 4.3 6.1 0.00 0.00 0.00 52 1017.5
20260506201309 60 15 2.6 5.2 0.00 0.00 0.00 51 1017.6
20260506200805 61 47 0.9 1.7 0.00 0.00 0.00 51 1017.4
20260506200301 62 68 3.5 7.0 0.00 0.00 0.00 50 1017.5
20260506195758 61 163 0.9 0.9 0.00 0.00 0.00 51 1017.6
20260506195255 61 165 2.6 4.3 0.00 0.00 0.00 52 1017.6
20260506194752 59 299 0.9 2.6 0.00 0.00 0.00 52 1017.8
20260506194248 60 245 0.0 0.0 0.00 0.00 0.00 54 1017.7
20260506193746 60 317 0.0 0.0 0.00 0.00 0.00 55 1017.9
20260506193243 60 32 0.0 0.9 0.00 0.00 0.00 54 1017.8
20260506192739 60 64 5.2 6.1 0.00 0.00 0.00 56 1018.2
20260506192236 58 35 1.7 2.6 0.00 0.00 0.00 57 1018.0
20260506191733 59 278 1.7 1.7 0.00 0.00 0.00 55 1018.1
20260506191229 58 210 0.9 1.7 0.00 0.00 0.00 57 1018.2
20260506190726 60 242 1.7 1.7 0.00 0.00 0.00 55 1018.1
20260506190223 59 283 2.6 4.3 0.00 0.00 0.00 55 1018.1
20260506185720 58 18 0.9 1.7 0.00 0.00 0.00 55 1018.4
20260506185216 59 107 0.0 0.9 0.00 0.00 0.00 59 1018.6
20260506184714 59 266 0.9 1.7 0.00 0.00 0.00 56 1018.5
20260506184211 59 158 0.9 1.7 0.00 0.00 0.00 58 1019.0
20260506183708 59 252 0.9 0.9 0.00 0.00 0.00 58 1019.0
20260506183203 59 278 0.9 1.7 0.00 0.00 0.00 58 1019.0
20260506182701 59 273 0.9 1.7 0.00 0.00 0.00 60 1019.1
20260506182158 58 275 2.6 2.6 0.00 0.00 0.00 57 1019.2
20260506181655 58 15 0.9 1.7 0.00 0.00 0.00 59 1019.2
20260506181153 58 51 0.9 1.7 0.00 0.00 0.00 59 1019.6
20260506180650 58 144 0.0 0.9 0.00 0.00 0.00 60 1019.3
20260506180146 57 252 0.0 0.9 0.00 0.00 0.00 59 1019.1
20260506175642 57 275 0.0 0.0 0.00 0.00 0.00 64 1019.1
20260506175139 58 226 0.0 0.0 0.00 0.00 0.00 61 1019.2
20260506174632 59 265 0.9 0.9 0.00 0.00 0.00 60 1018.8
20260506174128 58 223 0.0 0.0 0.00 0.00 0.00 61 1019.2
20260506173626 58 299 2.6 2.6 0.00 0.00 0.00 61 1019.2
20260506173122 58 194 0.0 0.0 0.00 0.00 0.00 65 1019.1
20260506172620 57 351 2.6 4.3 0.00 0.00 0.00 65 1019.3
20260506172116 57 226 0.0 0.0 0.00 0.00 0.00 62 1019.2
20260506171613 56 198 0.0 0.0 0.00 0.00 0.00 66 1019.3
20260506171110 57 182 0.9 2.6 0.00 0.00 0.00 63 1019.3
20260506170607 56 41 0.0 0.9 0.00 0.00 0.00 66 1019.0
20260506170100 55 345 0.0 0.0 0.00 0.00 0.00 67 1019.1
20260506165558 55 35 2.6 4.3 0.00 0.00 0.00 65 1018.9
20260506165054 55 34 4.3 6.1 0.00 0.00 0.00 66 1018.6
20260506164551 55 358 0.0 0.0 0.00 0.00 0.00 65 1018.8
20260506164048 55 43 0.0 0.9 0.00 0.00 0.00 68 1018.8
20260506163544 57 250 0.9 1.7 0.00 0.00 0.00 61 1018.5
20260506163039 56 23 0.9 1.7 0.00 0.00 0.00 63 1018.4
20260506162536 54 358 0.9 4.3 0.00 0.00 0.00 67 1018.6
20260506162028 54 65 2.6 4.3 0.00 0.00 0.00 68 1018.6
20260506161525 54 63 1.7 2.6 0.00 0.00 0.00 68 1018.5
20260506161022 54 28 0.0 1.7 0.00 0.00 0.00 70 1018.6
20260506160520 53 130 0.9 0.9 0.00 0.00 0.00 70 1018.7
20260506160016 52 46 0.0 0.0 0.00 0.00 0.00 71 1018.6
20260506155515 53 39 0.9 1.7 0.00 0.00 0.00 71 1018.7
20260506153646 52 40 3.5 5.2 0.00 0.00 0.00 71 1018.3
20260506153143 52 81 0.0 0.0 0.00 0.00 0.00 72 1018.3
20260506152640 51 25 0.0 0.0 0.00 0.00 0.00 74 1018.3
20260506152138 51 42 3.5 4.3 0.00 0.00 0.00 73 1018.1
20260506151636 51 42 0.0 0.9 0.00 0.00 0.00 74 1018.1
20260506151133 50 38 0.0 1.7 0.00 0.00 0.00 77 1018.3
20260506150630 50 29 2.6 5.2 0.00 0.00 0.00 76 1018.6
20260506150127 49 37 0.0 0.0 0.00 0.00 0.00 78 1018.6
20260506145624 50 98 0.0 0.9 0.00 0.00 0.00 79 1018.5
20260506145120 50 26 0.9 1.7 0.00 0.00 0.00 78 1018.6
20260506144618 50 26 2.6 5.2 0.00 0.00 0.00 78 1018.6
20260506144114 49 260 0.0 0.0 0.00 0.00 0.00 81 1018.3
20260506143612 49 12 0.9 1.7 0.00 0.00 0.00 81 1018.3
20260506143110 48 223 0.0 0.0 0.00 0.00 0.00 83 1018.4
20260506142608 48 67 0.0 0.0 0.00 0.00 0.00 83 1018.3
20260506142106 47 32 0.0 0.0 0.00 0.00 0.00 85 1018.0
20260506141603 48 322 0.0 0.9 0.00 0.00 0.00 86 1018.1
20260506141102 48 41 0.0 0.0 0.00 0.00 0.00 87 1018.3
20260506140558 47 26 0.0 0.0 0.00 0.00 0.00 88 1018.3
20260506140056 47 28 0.0 0.0 0.00 0.00 0.00 89 1018.4
20260506135552 47 50 0.0 1.7 0.00 0.00 0.00 89 1018.1
20260506135048 46 297 0.0 0.0 0.00 0.00 0.00 90 1018.2
20260506134545 46 35 0.9 2.6 0.00 0.00 0.00 90 1017.9
20260506134041 46 18 0.0 0.0 0.00 0.00 0.00 90 1018.3
20260506133538 46 322 1.7 4.3 0.00 0.00 0.00 92 1017.9
20260506133035 46 232 0.0 0.0 0.00 0.00 0.00 94 1017.8
20260506132533 46 9 0.0 0.0 0.00 0.00 0.00 95 1017.6
20260506132030 45 286 0.0 0.0 0.00 0.00 0.00 96 1018.0
20260506131527 46 283 0.0 0.0 0.00 0.00 0.00 97 1017.9
20260506131023 45 284 0.0 0.0 0.00 0.00 0.00 97 1017.7
20260506130520 45 324 0.0 0.0 0.00 0.00 0.00 97 1018.0
20260506130018 45 115 0.0 0.0 0.00 0.00 0.00 98 1017.9
20260506125516 45 260 0.0 0.0 0.00 0.00 0.00 98 1018.2
20260506125013 44 292 0.0 0.0 0.00 0.00 0.00 98 1017.9
20260506124511 45 282 0.0 0.0 0.00 0.00 0.00 98 1018.2
20260506124009 45 291 0.0 0.0 0.00 0.00 0.00 98 1018.0
20260506123506 44 262 0.0 0.0 0.00 0.00 0.00 98 1018.3
20260506123004 44 229 0.0 0.0 0.00 0.00 0.00 98 1018.1
20260506122501 44 295 0.9 2.6 0.00 0.00 0.00 98 1018.4
20260506121959 44 297 0.0 0.0 0.00 0.00 0.00 98 1018.2
20260506121456 44 270 0.0 0.0 0.00 0.00 0.00 99 1018.1
20260506120952 44 330 0.0 0.0 0.00 0.00 0.00 99 1017.7
20260506120450 44 359 0.0 0.0 0.00 0.00 0.00 99 1017.9
20260506115947 44 9 0.0 0.0 0.00 0.00 0.00 99 1017.8
20260506115445 44 282 0.0 0.0 0.00 0.00 0.00 99 1017.8
20260506114943 44 308 0.0 0.9 0.00 0.00 0.00 99 1017.7
20260506114440 44 271 0.0 0.0 0.00 0.00 0.00 99 1017.7
20260506113939 44 241 0.0 0.0 0.00 0.00 0.00 99 1017.7
20260506113436 44 253 0.0 0.0 0.00 0.00 0.00 99 1017.4
20260506112932 44 229 0.0 0.0 0.00 0.00 0.00 99 1017.2
20260506112430 44 296 0.0 0.0 0.00 0.00 0.00 99 1017.1
20260506111927 44 312 0.0 0.0 0.00 0.00 0.00 99 1016.9
20260506111425 44 258 0.0 0.0 0.00 0.00 0.00 99 1016.7
20260506110922 44 359 0.0 0.0 0.00 0.00 0.00 99 1016.5
20260506110420 44 266 0.0 0.0 0.00 0.00 0.00 99 1016.6
20260506105916 44 286 0.0 0.0 0.00 0.00 0.00 99 1016.4
20260506105413 44 277 0.0 0.0 0.00 0.00 0.00 99 1016.4
20260506104910 44 246 0.0 0.0 0.00 0.00 0.00 99 1016.1
20260506104408 44 296 0.0 0.0 0.00 0.00 0.00 99 1016.1